Вернуться в каталог

PRSC-HS1

АктивенНаукаSSO
NORAD 66054·PAYLOAD·🇵🇰 Pakistan
Это название спутника еще не подтверждено официальными источниками.

Запущен Oct 19, 2025 с Jiuquan Satellite Launch Center

Loading…

Ближайшие Пролёты (ближайшие 24 часа)

TLE

СвежийSource: Space-Track

Эпоха: Sep 13, 2026, 17:21 UTC

1 66054U 25234B   26256.72294685  .00003630  00000-0  16282-3 0  9995
2 66054  97.4683 325.3197 0011972 138.6754 221.5390 15.21787530 50101

Отслеживайте PRSC-HS1 в реальном времени с AllMySat

Download on the App Store